METEOR 2-8 DEB

基本信息
目录编号:
36319
目录名称:
METEOR 2-8 DEB
国际标识:
1982-025D
轨道中心:
EARTH
物体状态:
在轨
发射日期:
1982-03-25 UTC
轨道信息
数据来源: 国际轨道数据
星历时间: 2026-09-05T15:09:27+0800
半长轴: 7150.051km
偏心率: 0.0018538
轨道倾角: 82.517°
近地点辐角: 87.634°
升交点赤经: 95.705°
平近点角: 272.697°
近地点: 758.659km
远地点: 785.169km
周期: 100.282分钟
每日圈数: 14.359493
详细信息
发射场:
PKMTR
轨道高度:
LEO
数据来源:
AOE Integration Group
参考系:
TEME
时间系统:
UTC
历元类型:
SGP4
2D轨道图
3D轨道图
轨道高度分析图
轨道倾角分析图
轨道综合分析图
查看轨道综合分析图